Location: Gugi
(45.4667°N, 11.1000°E)
Time: 02:20:25
(UTC+00:00)

Cosmos 2263 Rocket - Pass Details

Date: 27 February 2020
Orbit: 822 x 850 km, 71.0° (Epoch: 08 April)

Event Time Altitude Azimuth Distance (km) Brightness Sun altitude
Rises 20:37:09 0° 338° (NNW) 3,417 6.0 -37.7°
Reaches altitude 10° 20:39:46 10° 346° (NNW) 2,481 5.1 -38.1°
Enters shadow 20:41:13 18° 353° (N) 1,994 4.4 -38.3°
